Temp
26 26 26 27 26 26 25 26 26 27 28 26 27 27 28 25 24 24 24 24 23 23 16 14 11 12 12 13 15 15 14 13 14 14 14 15 14 13 12 11 9 8 8 7
25 25 26 26 25 25 25 25 26 27 27 25 27 27 28 27 24 24 24 24 24 19 15 10 9 10 11 12 13 13 13 12 13 13 12 12 12 12 10 10 8 7 7 7
25 26 25 25 26 25 25 25 26 26 25 25 25 27 26 25 25 24 23 23 22 16 11 10 9 9 9 10 11 12 11 11 10 10 11 11 12 11 11 10 9 7 6 6
25 25 25 25 25 25 25 26 25 25 25 26 25 25 27 24 23 22 17 15 15 13 11 10 9 9 10 11 11 10 10 10 9 9 10 9 10 10 9 8 8 7 6 6
25 25 25 25 24 25 25 24 25 25 25 24 25 24 25 24 21 19 18 17 16 14 12 12 12 12 10 8 8 9 9 9 9 7 7 8 8 8 8 8 7 7 6 6
25 25 25 25 24 24 24 24 24 24 24 23 23 23 22 19 17 19 17 16 15 13 11 11 9 8 8 9 9 9 9 8 7 7 7 7 7 7 8 8 7 8 7 7
25 24 24 24 24 24 25 24 23 22 23 22 22 22 15 16 16 18 16 15 14 13 12 11 10 9 9 8 8 8 9 10 9 8 8 7 7 7 7 7 7 7 7 6
24 23 23 23 23 23 23 23 22 20 21 22 23 21 15 15 15 16 16 15 15 14 12 11 10 9 11 10 10 10 10 10 9 8 8 8 7 7 7 7 6 6 6 5
23 22 21 21 22 22 23 22 21 21 21 20 22 16 15 15 15 15 15 15 13 11 10 10 10 13 13 12 11 11 10 10 9 8 8 8 7 7 6 5 5 5 5 4
22 22 20 20 21 22 21 20 20 21 16 17 20 20 15 15 14 13 14 12 11 10 10 12 13 13 13 12 11 10 9 9 8 8 8 7 7 6 5 5 5 5 4 4
22 21 21 21 20 19 20 20 19 18 13 15 17 16 14 12 13 12 12 11 11 12 14 15 15 14 13 12 11 10 9 9 9 8 7 7 6 6 5 5 5 4 4 3
20 20 20 19 18 19 19 18 17 14 14 14 16 15 12 13 12 11 11 11 12 14 15 15 14 14 13 12 12 11 9 9 7 6 5 5 6 5 4 4 4 4 3 2
20 20 19 19 19 18 18 17 17 16 15 13 14 13 12 12 13 13 10 13 14 15 14 15 14 13 12 12 11 9 8 7 6 5 4 5 6 5 4 4 4 3 2 2
18 19 19 20 18 18 17 16 16 17 15 15 14 14 15 13 12 13 14 14 14 14 13 13 12 11 10 9 9 8 7 6 5 5 4 5 5 4 3 3 3 2 2 2
19 18 18 17 17 17 16 16 16 16 16 15 15 15 15 15 15 15 15 14 14 13 12 11 11 10 8 7 6 6 5 4 4 4 4 5 4 3 2 2 2 2 1 1
18 17 17 16 17 17 15 16 17 16 16 16 16 15 16 15 15 15 14 14 13 11 11 9 7 6 6 6 4 4 4 3 2 4 4 4 2 1 1 1 1 0 0 0
18 17 18 17 16 16 15 15 16 16 16 17 15 16 16 15 13 12 12 12 11 9 7 6 6 6 5 5 4 4 3 2 3 4 2 1 1 0 0 -0 -0 -1 -1 -1
18 18 17 16 16 14 15 16 17 16 16 17 16 16 14 12 9 10 11 9 6 5 6 7 7 6 4 4 4 3 3 2 3 3 1 1 0 0 -0 -1 -1 -1 -2 -1
19 18 16 15 16 15 15 16 16 16 15 16 15 14 13 8 10 8 6 5 6 7 7 7 6 4 4 4 3 2 2 2 2 2 1 1 0 0 -0 -1 -1 -1 -2 -1
17 18 17 16 16 14 16 17 17 18 13 15 14 14 13 10 10 7 6 8 8 8 7 7 6 4 4 3 2 2 2 1 1 1 1 0 1 0 -0 -1 -1 -1 -1 -1
16 16 16 15 16 15 16 16 17 13 12 15 15 14 13 11 10 7 9 8 8 7 6 6 5 5 3 3 2 1 2 1 0 0 -0 -0 -1 -1 -0 -0 -1 -1 -1 -1
17 17 15 16 15 13 16 16 15 14 14 14 14 13 11 9 10 9 9 8 7 7 7 6 5 4 3 3 2 1 1 1 0 0 0 -0 -1 -1 -1 -1 -1 -1 -1 -1
16 16 16 16 15 15 16 15 16 15 14 14 13 12 11 10 10 9 8 7 6 6 6 6 5 4 3 3 2 2 2 1 1 1 0 -0 -0 -0 -1 -1 -1 -1 -2 -1
15 15 15 16 14 14 14 15 15 14 14 13 13 12 11 10 9 8 8 7 6 6 5 5 5 4 4 3 2 2 2 2 2 2 1 0 -0 -1 -1 -1 -1 -2 -3 -3
16 16 15 14 14 14 14 14 13 13 13 12 11 11 10 10 9 8 7 6 6 5 5 4 4 4 3 3 2 2 2 2 2 1 -1 -2 -2 -1 -1 -1 -2 -2 -3 -4
17 15 16 15 15 16 13 13 13 12 12 11 11 10 9 9 8 7 7 6 5 4 4 4 3 3 3 3 2 1 1 2 1 1 -1 -2 -1 -1 -0 -1 -1 -1 -3 -3
Height
777 782 781 774 775 777 778 779 776 764 760 772 769 765 759 770 777 778 780 785 791 795 812 818 822 822 829 832 831 833 835 837 839 840 840 839 839 841 840 839 838 837 836 836
782 783 773 773 776 778 777 778 773 762 761 774 762 763 755 759 770 774 778 783 787 803 817 821 824 823 829 836 836 836 837 839 840 843 842 841 842 841 840 840 840 839 837 835
784 776 775 778 773 778 773 774 770 773 770 768 769 762 759 763 767 774 782 783 789 809 820 826 828 834 831 835 841 838 840 841 846 845 843 842 842 839 838 838 839 839 838 835
778 773 778 774 773 772 775 766 769 772 774 773 766 779 757 769 777 785 804 808 812 818 824 829 833 834 837 840 842 839 842 845 846 846 845 843 843 842 840 839 839 838 837 835
777 777 776 775 776 772 774 771 771 771 772 775 765 779 768 771 790 802 806 808 814 821 828 831 834 837 838 842 839 843 848 847 848 847 844 843 844 843 841 838 839 837 835 833
772 768 773 772 774 773 772 772 771 771 771 784 774 779 784 799 809 800 812 815 820 828 835 838 840 841 839 840 844 846 847 847 850 848 847 845 845 844 841 837 836 835 834 830
772 773 771 773 773 771 769 772 784 789 784 791 782 783 815 814 814 807 815 820 827 834 837 839 840 841 843 845 846 846 848 848 850 849 848 845 843 842 840 837 836 834 833 829
780 786 778 778 779 779 778 778 789 805 792 787 772 788 818 820 820 819 819 823 828 833 839 841 842 844 844 846 846 846 847 848 849 848 846 844 843 840 839 837 835 833 830 828
784 785 784 784 780 782 778 781 784 790 789 795 779 813 822 823 823 823 823 827 832 839 843 844 844 840 842 843 845 846 847 848 847 847 845 844 842 838 837 835 833 830 827 828
782 788 788 787 784 781 783 788 793 787 816 814 787 785 817 822 825 828 828 832 839 843 845 844 840 839 840 842 844 845 846 846 846 846 844 842 839 835 836 834 831 829 828 826
780 786 789 786 791 795 789 791 797 800 827 819 807 812 824 831 825 830 833 836 839 839 836 835 836 837 838 841 842 844 845 845 845 844 842 839 837 836 834 832 830 828 826 823
784 786 791 795 798 795 795 801 806 823 827 824 815 820 834 831 833 836 837 840 837 834 833 836 837 837 838 839 841 842 844 844 845 843 841 839 837 835 833 831 828 826 824 821
785 789 795 797 799 799 800 806 808 813 821 832 823 829 834 835 830 833 839 835 833 835 837 836 838 840 841 841 842 843 844 845 845 844 842 839 836 834 832 829 827 825 822 819
787 792 790 792 798 800 805 810 810 810 817 818 825 828 821 832 837 833 833 833 834 836 839 842 844 846 846 846 846 845 846 846 845 843 841 837 834 832 830 827 825 822 820 817
785 796 797 801 803 803 808 809 809 810 811 818 821 821 823 824 826 829 830 832 832 838 844 847 848 849 851 851 848 847 848 847 846 844 840 837 834 831 829 825 822 820 817 814
790 801 799 809 807 807 814 810 809 811 812 813 815 818 819 824 826 829 834 834 840 845 848 852 856 856 853 852 851 850 849 848 845 843 840 837 834 831 828 824 821 817 814 811
790 796 797 805 808 810 816 817 811 815 812 810 815 815 818 826 835 840 840 843 847 854 858 859 858 857 857 855 853 851 850 848 846 844 841 839 835 832 827 823 820 816 812 809
790 793 796 805 809 821 814 811 811 812 814 812 814 819 827 838 850 849 849 853 860 862 861 860 859 859 859 857 855 853 851 849 847 845 843 839 836 832 828 824 820 815 811 808
785 791 803 808 804 816 813 812 812 812 818 816 819 828 833 851 849 857 862 863 863 862 861 861 861 862 861 859 857 854 852 850 849 846 843 840 836 832 829 824 820 816 812 808
793 790 798 805 802 816 808 808 809 807 823 822 825 827 834 846 842 859 865 861 862 862 862 862 863 864 862 861 858 856 854 852 850 846 843 840 837 833 829 825 821 817 812 808
796 799 803 806 803 811 810 812 809 824 832 825 826 828 832 839 848 862 861 862 863 864 865 865 864 864 864 862 860 858 856 853 851 847 844 840 837 834 830 827 822 818 813 809
791 795 802 802 806 822 812 811 816 825 828 829 833 837 845 852 856 859 862 864 865 866 866 866 866 866 865 863 861 859 857 854 851 848 845 842 838 835 831 828 824 820 815 810
796 794 800 802 809 815 814 818 821 825 830 834 838 844 849 853 858 861 864 867 868 868 868 868 866 867 866 864 862 860 858 855 852 850 846 843 840 837 833 829 826 821 817 812
799 799 803 802 818 820 823 825 829 832 836 840 845 849 853 857 861 864 867 869 869 870 869 869 868 867 867 866 864 862 859 856 853 851 848 845 842 839 835 832 828 824 820 815
792 795 805 812 822 825 828 832 836 840 844 848 851 855 858 861 865 867 869 870 871 871 872 872 871 870 869 867 866 863 861 858 855 853 851 848 844 841 837 834 830 827 824 820
791 798 797 804 815 813 830 836 841 844 848 853 856 859 862 864 867 869 870 871 872 874 874 873 872 872 870 869 867 865 863 860 857 855 853 850 846 843 839 835 832 828 824 821
Wind_Speed
2 8 8 9 6 10 8 9 12 9 4 10 12 13 12 13 15 16 16 15 15 14 10 13 13 14 9 7 11 10 10 8 4 3 3 5 7 8 7 7 8 8 8 9
7 9 7 2 6 8 9 10 10 10 3 9 11 9 6 10 15 15 14 14 15 11 9 14 11 15 15 10 13 15 15 12 10 7 7 6 8 8 8 7 7 7 7 8
9 6 3 7 9 9 12 11 7 7 3 11 7 14 6 3 5 6 8 7 5 8 9 10 18 14 18 16 12 16 14 15 11 10 9 9 9 8 7 7 7 8 8 7
7 2 4 8 6 4 7 2 7 6 7 9 2 10 2 6 7 6 12 9 7 7 9 11 15 16 17 13 10 15 13 10 10 12 10 10 10 10 8 7 7 8 7 7
1 7 7 8 3 3 5 3 4 6 9 7 11 6 6 9 9 8 7 4 6 9 11 13 13 17 14 10 14 11 9 10 9 8 9 8 8 8 8 7 8 8 8 8
10 2 4 4 1 2 1 6 6 6 7 9 5 5 5 7 10 6 6 7 11 14 15 16 12 10 16 13 6 5 5 5 5 7 7 7 8 9 10 9 10 10 11 10
4 2 3 3 7 5 4 6 6 4 4 5 4 7 7 7 10 9 7 11 14 14 11 9 11 12 8 1 5 4 2 2 4 6 8 9 9 11 12 12 12 13 14 14
4 6 4 7 4 5 5 5 4 7 8 9 7 4 5 5 5 8 10 13 14 13 7 5 9 5 3 5 7 5 2 2 5 8 10 11 12 12 13 13 14 13 13 14
2 3 3 8 7 4 3 5 3 7 4 7 2 6 5 4 5 7 11 11 10 8 6 5 4 2 1 1 4 4 2 3 7 9 10 12 13 13 14 13 12 11 13 14
1 3 0 2 3 7 5 3 5 3 2 3 3 2 4 9 3 9 10 9 8 7 6 4 6 2 2 1 3 3 0 3 5 7 10 13 14 14 11 11 11 12 13 15
2 3 5 4 4 5 1 1 3 3 2 1 4 4 7 9 9 11 8 5 4 6 7 1 7 5 4 2 1 2 2 3 5 8 11 14 15 13 12 12 13 13 14 15
2 1 2 3 4 4 4 3 3 1 2 0 3 2 4 2 10 9 7 5 7 7 5 6 6 5 5 2 2 2 2 4 6 9 12 13 14 13 13 14 13 14 14 13
5 3 3 5 6 4 1 3 3 5 2 3 2 3 4 3 6 7 5 3 6 7 4 3 7 9 8 7 5 4 4 5 8 11 13 15 14 13 14 13 12 11 12 13
2 2 4 3 5 2 2 1 2 1 2 3 2 1 2 5 5 8 9 7 6 1 7 7 8 10 11 11 10 7 5 7 9 13 15 16 15 14 14 15 13 13 14 14
2 4 6 7 6 6 5 3 3 3 1 2 3 3 6 8 8 6 4 1 2 7 7 8 8 11 14 13 12 9 8 8 11 13 15 16 16 14 16 19 14 15 15 13
2 5 9 7 6 5 5 6 7 5 5 4 5 4 6 5 6 6 5 5 7 7 9 10 11 11 13 12 10 8 7 9 11 13 15 16 17 16 16 16 16 15 17 12
5 7 6 5 4 2 3 3 2 4 1 3 2 5 8 8 8 8 8 8 9 8 8 7 8 10 11 12 12 10 7 10 10 13 15 15 17 17 17 17 18 17 14 16
8 7 2 4 5 2 4 3 1 2 2 2 4 7 10 9 10 8 11 9 8 6 5 5 7 10 11 11 13 11 8 9 11 13 15 15 15 16 16 17 18 18 17 14
5 4 3 3 4 4 3 5 5 4 3 3 7 6 9 11 11 10 8 6 4 5 5 7 9 10 10 12 11 14 10 9 12 13 14 14 14 15 16 17 17 17 16 14
5 2 2 3 3 2 4 3 3 4 3 7 3 2 10 10 1 3 3 3 5 6 7 8 8 9 11 14 14 14 12 13 14 12 12 13 14 14 15 16 17 18 16 15
5 3 4 3 1 4 4 3 3 4 5 7 8 8 7 4 6 8 5 7 7 7 8 6 7 9 10 11 11 12 12 13 12 12 12 12 13 13 14 15 16 17 18 16
5 5 3 3 3 3 3 4 2 8 10 10 11 12 13 12 10 9 7 7 7 7 7 7 8 9 9 9 11 12 12 11 11 12 13 13 13 13 14 15 16 16 18 17
4 1 4 5 5 7 8 13 11 11 11 10 11 11 12 12 10 8 7 8 7 7 7 7 7 7 9 11 12 12 14 13 13 13 13 12 14 14 14 14 16 16 18 19
4 1 6 7 9 12 13 13 11 12 12 12 11 12 11 11 10 8 8 7 7 7 7 6 6 9 10 12 12 12 13 12 12 12 13 13 14 15 14 13 14 15 18 19
2 9 9 14 12 13 11 12 13 14 13 14 14 13 12 11 9 8 8 7 6 6 6 8 8 9 10 11 12 12 13 13 11 12 13 14 13 14 14 13 13 14 13 15
6 8 7 7 16 6 13 12 14 14 14 13 13 13 12 11 10 9 8 7 7 7 7 7 8 8 9 10 11 12 13 13 12 11 13 14 13 14 14 14 14 13 14 14
Wind_Direction
176 266 255 314 315 289 282 271 268 266 205 250 257 265 270 186 214 215 208 205 206 199 91 84 71 84 75 133 124 112 103 90 76 50 355 332 332 318 317 326 338 345 345 339
234 254 344 316 280 259 242 257 264 262 285 226 272 271 277 204 217 223 218 213 216 135 113 98 99 93 108 86 93 90 84 74 61 39 21 1 331 315 320 324 327 339 342 341
282 293 304 281 284 259 241 259 292 299 147 228 265 260 194 196 217 213 232 266 316 139 118 108 102 107 97 101 85 84 75 62 40 27 10 356 326 310 322 319 318 322 331 341
283 51 253 297 281 274 267 341 277 276 265 300 272 296 246 81 87 68 36 27 62 96 113 122 126 115 120 105 96 77 66 63 40 22 12 9 351 332 334 318 309 313 316 327
168 280 304 296 20 293 358 331 284 281 278 293 246 256 93 120 94 47 32 65 105 112 120 120 116 112 88 76 61 61 60 49 26 20 18 8 349 333 320 320 313 312 312 317
272 305 282 342 311 302 311 264 242 258 280 258 19 290 71 22 343 353 66 89 109 114 113 109 105 93 68 55 42 102 87 54 10 17 2 353 334 329 327 331 320 318 314 314
212 144 131 352 262 178 247 298 306 281 254 273 59 292 57 14 10 46 106 112 117 116 118 109 85 77 86 107 167 155 139 44 7 356 346 340 331 323 320 323 317 316 313 317
274 175 5 360 6 326 331 308 285 283 298 301 282 290 76 34 64 95 112 121 129 125 101 80 97 130 249 182 183 182 174 3 1 351 345 340 330 320 315 311 307 306 313 324
241 157 120 67 46 315 92 276 19 278 243 266 271 100 128 65 99 125 125 132 111 83 59 66 214 158 80 150 198 186 182 351 1 347 345 337 328 321 310 307 308 315 324 317
182 246 348 113 241 73 358 49 248 226 265 264 236 218 49 334 231 159 156 114 108 117 134 176 195 289 356 83 171 177 221 350 342 339 341 338 338 337 319 315 324 324 318 317
201 265 122 209 23 1 327 222 47 88 39 288 292 76 9 353 297 165 155 134 58 161 192 178 23 29 25 73 202 202 242 302 319 336 339 342 343 330 322 321 319 314 316 319
107 272 284 41 102 56 41 62 84 222 159 279 322 72 6 96 117 155 151 191 234 212 73 43 13 3 3 344 268 259 285 316 336 343 341 337 333 331 326 317 320 323 320 323
167 202 222 174 176 182 45 55 74 109 128 199 238 95 190 7 80 98 125 167 118 87 91 338 22 15 16 12 16 356 348 352 350 348 342 325 325 327 325 319 320 331 332 322
150 125 290 334 62 60 151 119 168 327 248 168 249 87 101 129 129 130 122 117 114 344 43 42 46 37 32 27 16 9 12 360 351 343 336 328 331 331 324 316 316 333 326 315
202 129 115 90 93 89 77 64 144 189 283 286 134 179 120 119 121 122 123 87 108 72 63 55 43 26 15 9 13 8 7 352 345 341 338 342 338 335 334 329 330 322 319 316
169 135 140 103 104 99 102 96 100 107 124 124 156 152 144 131 128 80 50 62 79 72 56 43 33 20 4 5 7 352 344 354 354 346 349 350 348 341 342 341 333 329 330 309
157 151 189 143 142 131 196 198 160 141 110 313 350 75 158 118 78 38 70 70 67 59 47 37 27 16 14 9 6 11 6 3 1 358 357 355 359 351 351 351 345 343 347 336
150 141 144 132 173 223 109 142 204 144 129 89 102 75 69 94 82 64 46 62 61 43 42 32 27 26 17 11 8 2 3 359 1 0 359 360 357 357 1 356 353 349 344 337
173 149 122 163 194 127 160 178 182 231 112 51 114 114 136 118 125 81 67 74 80 55 50 36 40 26 18 14 8 7 3 7 360 352 355 352 352 352 350 353 354 352 346 344
124 103 142 182 233 162 93 124 192 235 202 44 80 168 137 169 274 100 114 77 75 56 46 39 38 29 25 16 18 11 21 8 3 355 351 350 354 353 354 355 355 357 357 351
159 154 184 166 127 110 85 80 214 258 65 80 66 85 120 86 62 131 116 83 64 52 49 47 35 36 22 17 17 21 24 22 10 5 5 5 2 359 358 360 360 359 0 360
174 171 152 176 130 139 79 190 311 104 103 95 87 90 101 113 116 104 90 74 60 54 49 45 44 36 20 11 16 17 8 357 359 2 6 7 4 1 2 2 1 3 3 2
162 1 121 360 81 83 81 93 96 109 113 101 102 104 108 110 105 96 86 69 62 58 51 39 46 41 32 22 13 7 3 0 4 7 7 6 7 7 6 2 1 1 5 5
114 131 122 120 100 104 103 96 92 102 103 103 104 106 110 109 106 98 85 75 71 64 55 40 41 33 29 20 17 10 5 4 6 9 9 7 6 4 6 6 7 6 7 3
73 139 131 105 123 113 105 103 107 104 106 107 104 105 108 111 102 98 94 88 77 69 57 40 42 34 26 18 18 14 12 10 9 14 11 9 8 7 6 10 7 9 9 11
184 155 153 159 163 132 132 121 122 119 115 114 115 112 108 109 108 107 100 88 78 68 55 58 48 36 27 22 20 15 13 13 15 17 13 10 10 9 9 7 4 2 7 6